Location: Newark
(4.2170°N, 12.9170°E)
Time: 02:00:35
(UTC+00:00)

N. Korean satellite - Visible Passes

Search period start: 14 November 2019 00:00
Search period end: 24 November 2019 00:00
Orbit: 456 x 506 km, 97.2° (Epoch: 12 November)

Date Brightness Start Highest point End Pass type
(mag) Time Alt. Az. Time Alt. Az. Time Alt. Az.
14 Nov 10.4 03:49:03 10° E 03:49:49 11° E 03:50:34 10° ESE visible
14 Nov 9.4 17:09:29 10° SSW 17:12:21 24° W 17:15:14 10° NW visible
16 Nov 7.6 04:28:48 10° NNE 04:32:21 53° E 04:35:52 10° S visible
17 Nov 9.7 04:04:19 10° NE 04:07:01 20° E 04:09:41 10° SSE visible
17 Nov 10.1 17:27:56 10° SW 17:29:32 13° W 17:31:09 10° WNW visible
20 Nov 8.3 04:20:50 10° NNE 04:24:11 37° E 04:27:31 10° S visible
21 Nov 9.9 03:56:46 10° ENE 03:58:50 15° E 04:00:53 10° SE visible
21 Nov 9.8 17:18:57 10° SW 17:21:21 17° W 17:23:46 10° WNW visible
